FW8685 Weather Reports


time (UTC)temp
C
wind
direction
speed
KPH
gust
KPH
rain 1hr
cm
rain 24hr
cm
rain mn
cm
humidity
%
barometer
mb
20260510073521 17 53 11.3 19.3 0.00 0.00 0.00 62 1011.1
20260510073042 17 50 11.3 19.3 0.00 0.00 0.00 62 1011.2
20260510072521 17 53 12.9 19.3 0.00 0.00 0.00 61 1011.1
20260510072021 17 69 9.7 17.7 0.00 0.00 0.00 61 1011.1
20260510071539 17 86 12.9 19.3 0.00 0.00 0.00 62 1011.1
20260510071020 17 71 9.7 19.3 0.00 0.00 0.00 62 1010.9
20260510070521 17 59 11.3 17.7 0.00 0.00 0.00 62 1010.9
20260510070047 17 65 12.9 17.7 0.00 0.00 0.00 63 1010.9
20260510065523 17 65 11.3 17.7 0.00 0.00 0.00 63 1010.8
20260510065025 17 76 8.0 12.9 0.00 0.00 0.00 63 1011.0
20260510064544 17 56 8.0 14.5 0.00 0.00 0.00 62 1011.0
20260510064020 17 64 9.7 17.7 0.00 0.00 0.00 62 1010.9
20260510063522 17 52 8.0 17.7 0.00 0.00 0.00 62 1010.8
20260510063038 17 48 12.9 17.7 0.00 0.00 0.00 61 1010.8
20260510062522 17 30 9.7 17.7 0.00 0.00 0.00 60 1010.6
20260510062023 17 56 12.9 17.7 0.00 0.00 0.00 60 1010.2
20260510061537 18 59 8.0 12.9 0.00 0.00 0.00 59 1010.2
20260510061024 18 67 6.4 12.9 0.00 0.00 0.00 59 1010.2
20260510060523 18 66 8.0 14.5 0.00 0.00 0.00 58 1010.1
20260510060041 18 60 8.0 14.5 0.00 0.00 0.00 58 1010.1
20260510055530 18 41 8.0 19.3 0.00 0.00 0.00 58 1010.0
20260510055022 18 54 12.9 19.3 0.00 0.00 0.00 58 1009.8
20260510054539 18 38 11.3 19.3 0.00 0.00 0.00 57 1009.7
20260510054021 18 47 12.9 19.3 0.00 0.00 0.00 57 1009.5
20260510053520 18 48 12.9 19.3 0.00 0.00 0.00 57 1009.4
20260510053038 18 37 12.9 17.7 0.00 0.00 0.00 58 1009.4
20260510052520 18 38 12.9 17.7 0.00 0.00 0.00 58 1009.2
20260510052021 18 36 12.9 17.7 0.00 0.00 0.00 58 1009.1
20260510051538 18 38 9.7 14.5 0.00 0.00 0.00 58 1009.1
20260510051025 19 40 6.4 9.7 0.00 0.00 0.00 57 1009.1
20260510050523 19 40 4.8 9.7 0.00 0.00 0.00 57 1009.2
20260510050038 18 44 4.8 14.5 0.00 0.00 0.00 55 1009.0
20260510045521 18 60 8.0 14.5 0.00 0.00 0.00 58 1009.0
20260510045020 18 65 8.0 14.5 0.00 0.00 0.00 58 1009.1
20260510044537 18 54 6.4 12.9 0.00 0.00 0.00 58 1009.3
20260510044023 18 78 3.2 9.7 0.00 0.00 0.00 57 1009.2
20260510043522 19 144 3.2 9.7 0.00 0.00 0.00 57 1009.1
20260510043036 19 157 4.8 9.7 0.00 0.00 0.00 57 1009.2
20260510042522 19 180 4.8 9.7 0.00 0.00 0.00 54 1009.3
20260510042020 20 188 4.8 8.0 0.00 0.00 0.00 53 1009.6
20260510041535 20 193 0.0 4.8 0.00 0.00 0.00 54 1009.5
20260510041023 20 0 0.0 3.2 0.00 0.00 0.00 54 1009.4
20260510040521 20 0 0.0 3.2 0.00 0.00 0.00 55 1009.5
20260510040039 20 298 0.0 3.2 0.00 0.00 0.00 53 1009.4
20260510035522 21 0 0.0 3.2 0.00 0.00 0.00 50 1009.5
20260510035022 21 285 0.0 3.2 0.00 0.00 0.00 51 1009.5
20260510034537 21 0 0.0 4.8 0.00 0.00 0.00 49 1009.4
20260510034025 21 0 1.6 4.8 0.00 0.00 0.00 50 1009.5
20260510033520 21 286 0.0 4.8 0.00 0.00 0.00 49 1009.3
20260510033051 21 0 1.6 9.7 0.00 0.00 0.00 48 1009.3
20260510032523 21 110 3.2 12.9 0.00 0.00 0.00 47 1009.1
20260510032023 21 105 4.8 12.9 0.00 0.00 0.00 47 1009.1
20260510031539 21 121 9.7 12.9 0.00 0.00 0.00 48 1008.7
20260510031022 22 105 6.4 12.9 0.00 0.00 0.00 47 1008.7
20260510030521 22 110 8.0 12.9 0.00 0.00 0.00 46 1008.9
20260510030037 22 144 8.0 14.5 0.00 0.00 0.00 46 1009.1
20260510025525 22 144 8.0 14.5 0.00 0.00 0.00 46 1009.4
20260510025021 22 162 6.4 14.5 0.00 0.00 0.00 45 1009.4
20260510024536 22 168 8.0 14.5 0.00 0.00 0.00 45 1009.4
20260510024022 22 146 8.0 16.1 0.00 0.00 0.00 45 1009.5
20260510023521 22 238 8.0 16.1 0.00 0.00 0.00 45 1009.4
20260510023039 22 66 8.0 16.1 0.00 0.00 0.00 46 1009.4
20260510022522 22 344 6.4 14.5 0.00 0.00 0.00 45 1009.3
20260510022023 22 19 8.0 12.9 0.00 0.00 0.00 43 1009.5
20260510021625 22 343 4.8 9.7 0.00 0.00 0.00 43 1009.5
20260510021021 22 342 3.2 6.4 0.00 0.00 0.00 42 1009.4
20260510020522 22 317 1.6 6.4 0.00 0.00 0.00 42 1009.4
20260510020038 23 317 3.2 6.4 0.00 0.00 0.00 42 1009.2
20260510015521 23 317 3.2 6.4 0.00 0.00 0.00 41 1009.0
20260510015021 23 286 1.6 4.8 0.00 0.00 0.00 41 1008.7
20260510014548 23 174 0.0 4.8 0.00 0.00 0.00 41 1008.3
20260510014021 23 0 0.0 8.0 0.00 0.00 0.00 39 1008.2
20260510013524 23 0 3.2 12.9 0.00 0.00 0.00 39 1007.9
20260510013036 23 132 6.4 12.9 0.00 0.00 0.00 39 1007.7
20260510012522 23 177 6.4 12.9 0.00 0.00 0.00 39 1007.4
20260510012021 23 159 6.4 14.5 0.00 0.00 0.00 38 1007.2
20260510011538 24 171 6.4 14.5 0.00 0.00 0.00 38 1006.9
20260510011021 24 155 9.7 19.3 0.00 0.00 0.00 37 1006.8
20260510010522 24 146 8.0 20.9 0.00 0.00 0.00 37 1006.6
20260510010048 24 150 12.9 25.7 0.00 0.00 0.00 37 1006.5
20260510005523 24 159 14.5 25.7 0.00 0.00 0.00 37 1006.4
20260510005022 25 142 14.5 22.5 0.00 0.00 0.00 37 1006.3
20260510004538 25 185 12.9 20.9 0.00 0.00 0.00 36 1006.2
20260510004021 25 147 11.3 20.9 0.00 0.00 0.00 35 1006.0
20260510003521 26 164 9.7 19.3 0.00 0.00 0.00 34 1005.8
20260510003038 26 161 11.3 19.3 0.00 0.00 0.00 34 1005.8
20260510002522 26 150 11.3 19.3 0.00 0.00 0.00 33 1005.7
20260510002021 26 166 9.7 19.3 0.00 0.00 0.00 33 1005.7
20260510001537 27 148 11.3 24.1 0.00 0.00 0.00 32 1005.6
20260510001021 27 175 12.9 25.7 0.00 0.00 0.00 30 1005.7
20260510000521 27 157 12.9 25.7 0.00 0.00 0.00 31 1005.6
20260510000037 27 171 16.1 22.5 0.00 0.00 0.00 30 1005.6
20260509235521 27 149 11.3 22.5 0.00 0.00 0.00 30 1005.7
20260509235021 28 203 14.5 22.5 0.00 0.00 0.00 29 1005.7
20260509234539 28 130 12.9 19.3 0.00 0.00 0.00 28 1005.8
20260509234021 28 170 12.9 19.3 0.00 0.00 0.00 28 1005.8
20260509233520 28 167 12.9 20.9 0.00 0.00 0.00 28 1005.8
20260509233037 28 155 12.9 22.5 0.00 0.00 0.00 28 1005.9
20260509232524 28 190 12.9 22.5 0.00 0.00 0.00 28 1005.9
20260509232021 28 154 11.3 22.5 0.00 0.00 0.00 28 1005.9
20260509231537 29 154 12.9 24.1 0.00 0.00 0.00 27 1005.8
20260509231022 29 164 11.3 24.1 0.00 0.00 0.00 29 1005.9
20260509230522 29 189 12.9 24.1 0.00 0.00 0.00 27 1005.8
20260509230041 29 136 12.9 24.1 0.00 0.00 0.00 26 1005.8
20260509225522 29 159 16.1 22.5 0.00 0.00 0.00 25 1005.8
20260509225022 29 179 12.9 20.9 0.00 0.00 0.00 28 1005.8
20260509224536 29 151 11.3 25.7 0.00 0.00 0.00 27 1005.7
20260509224021 30 158 14.5 25.7 0.00 0.00 0.00 27 1005.8
20260509223523 30 153 12.9 25.7 0.00 0.00 0.00 26 1005.8
20260509223038 30 155 8.0 22.5 0.00 0.00 0.00 26 1005.8
20260509222520 30 164 11.3 25.7 0.00 0.00 0.00 24 1005.6
20260509222023 30 188 9.7 27.4 0.00 0.00 0.00 26 1005.6
20260509221541 30 163 12.9 27.4 0.00 0.00 0.00 26 1005.6
20260509221024 30 203 12.9 25.7 0.00 0.00 0.00 26 1005.5
20260509220525 30 165 12.9 25.7 0.00 0.00 0.00 25 1005.5
20260509220038 30 155 14.5 25.7 0.00 0.00 0.00 25 1005.4
20260509215523 30 235 6.4 29.0 0.00 0.00 0.00 22 1005.5
20260509215022 30 161 14.5 29.0 0.00 0.00 0.00 24 1005.5
20260509214539 30 184 8.0 22.5 0.00 0.00 0.00 27 1005.6
20260509214020 30 157 8.0 22.5 0.00 0.00 0.00 26 1005.6
20260509213522 30 151 6.4 20.9 0.00 0.00 0.00 25 1005.6
20260509213038 30 185 11.3 19.3 0.00 0.00 0.00 26 1005.7
20260509212524 30 150 8.0 19.3 0.00 0.00 0.00 26 1005.8
20260509212024 30 126 11.3 19.3 0.00 0.00 0.00 24 1005.8
20260509211539 30 158 8.0 14.5 0.00 0.00 0.00 25 1005.9
20260509211021 30 267 6.4 17.7 0.00 0.00 0.00 23 1005.8
20260509210521 30 135 4.8 19.3 0.00 0.00 0.00 25 1005.9
20260509210043 30 188 11.3 19.3 0.00 0.00 0.00 24 1006.1
20260509205520 30 161 4.8 16.1 0.00 0.00 0.00 24 1006.1
20260509205021 30 190 4.8 19.3 0.00 0.00 0.00 24 1006.1
20260509204541 30 161 8.0 19.3 0.00 0.00 0.00 24 1006.1
20260509204021 29 153 1.6 19.3 0.00 0.00 0.00 24 1006.2
20260509203520 30 155 9.7 29.0 0.00 0.00 0.00 26 1006.5
20260509203037 30 151 9.7 29.0 0.00 0.00 0.00 23 1006.5
20260509202520 30 157 17.7 22.5 0.00 0.00 0.00 24 1006.5
20260509202023 30 133 12.9 22.5 0.00 0.00 0.00 27 1006.5
20260509201540 30 186 12.9 22.5 0.00 0.00 0.00 30 1006.6
20260509201022 29 183 8.0 22.5 0.00 0.00 0.00 25 1006.6
20260509200521 30 139 8.0 22.5 0.00 0.00 0.00 24 1006.8
20260509200039 30 154 9.7 22.5 0.00 0.00 0.00 24 1006.8
20260509195524 31 171 9.7 22.5 0.00 0.00 0.00 23 1006.8
20260509195021 30 188 9.7 20.9 0.00 0.00 0.00 25 1006.9
20260509194551 30 218 6.4 22.5 0.00 0.00 0.00 21 1007.0
20260509194021 31 151 14.5 24.1 0.00 0.00 0.00 25 1007.0
20260509193522 30 190 14.5 24.1 0.00 0.00 0.00 25 1007.1
20260509193036 30 133 3.2 14.5 0.00 0.00 0.00 26 1007.2
20260509192522 30 53 3.2 16.1 0.00 0.00 0.00 22 1007.2
20260509192021 30 178 6.4 17.7 0.00 0.00 0.00 22 1007.3
20260509191535 30 220 9.7 17.7 0.00 0.00 0.00 21 1007.2
20260509191023 30 207 6.4 17.7 0.00 0.00 0.00 24 1007.4
20260509190520 30 257 8.0 17.7 0.00 0.00 0.00 24 1007.4
20260509190040 30 263 4.8 14.5 0.00 0.00 0.00 23 1007.4
20260509185521 30 313 6.4 14.5 0.00 0.00 0.00 24 1007.5
20260509185022 30 299 8.0 16.1 0.00 0.00 0.00 24 1007.5
20260509184538 29 296 8.0 19.3 0.00 0.00 0.00 26 1007.5
20260509184020 29 234 8.0 19.3 0.00 0.00 0.00 24 1007.6
20260509183522 29 236 6.4 14.5 0.00 0.00 0.00 23 1007.6
20260509183038 29 264 4.8 24.1 0.00 0.00 0.00 24 1007.7
20260509182521 29 261 9.7 24.1 0.00 0.00 0.00 25 1007.8
20260509182022 29 232 8.0 20.9 0.00 0.00 0.00 26 1007.9
20260509181538 29 197 12.9 25.7 0.00 0.00 0.00 25 1008.0
20260509181021 28 239 14.5 25.7 0.00 0.00 0.00 25 1008.0
20260509180522 28 230 4.8 22.5 0.00 0.00 0.00 27 1008.1
20260509180050 29 200 11.3 24.1 0.00 0.00 0.00 29 1008.1
20260509175522 29 182 12.9 24.1 0.00 0.00 0.00 28 1008.2
20260509175022 28 232 9.7 22.5 0.00 0.00 0.00 27 1008.3
20260509174540 28 224 8.0 19.3 0.00 0.00 0.00 24 1008.3
20260509174021 28 211 8.0 19.3 0.00 0.00 0.00 25 1008.3
20260509173520 28 186 11.3 20.9 0.00 0.00 0.00 27 1008.3
20260509173053 28 274 9.7 22.5 0.00 0.00 0.00 26 1008.3
20260509172525 28 258 11.3 27.4 0.00 0.00 0.00 27 1008.4
20260509172023 28 297 12.9 27.4 0.00 0.00 0.00 26 1008.5
20260509171541 28 256 14.5 25.7 0.00 0.00 0.00 28 1008.5
20260509171020 28 234 14.5 25.7 0.00 0.00 0.00 26 1008.5
20260509170520 27 254 12.9 24.1 0.00 0.00 0.00 26 1008.6
20260509170038 27 254 14.5 27.4 0.00 0.00 0.00 26 1008.7
20260509165521 27 276 16.1 27.4 0.00 0.00 0.00 27 1008.6
20260509165021 27 300 14.5 24.1 0.00 0.00 0.00 27 1008.6
20260509164537 27 256 9.7 25.7 0.00 0.00 0.00 29 1008.6
20260509164021 27 257 12.9 29.0 0.00 0.00 0.00 30 1008.7
20260509163525 27 273 16.1 29.0 0.00 0.00 0.00 28 1008.7
20260509163037 27 226 11.3 22.5 0.00 0.00 0.00 33 1008.8
20260509162521 27 247 8.0 22.5 0.00 0.00 0.00 33 1008.9
20260509162050 27 238 8.0 20.9 0.00 0.00 0.00 36 1008.9
20260509161552 26 249 11.3 20.9 0.00 0.00 0.00 35 1008.9
20260509161022 26 280 11.3 20.9 0.00 0.00 0.00 38 1008.9
20260509160523 26 219 11.3 17.7 0.00 0.00 0.00 38 1008.8
20260509160039 26 229 8.0 17.7 0.00 0.00 0.00 38 1008.8
20260509155522 26 208 11.3 17.7 0.00 0.00 0.00 39 1008.7
20260509155022 26 211 8.0 17.7 0.00 0.00 0.00 40 1008.6
20260509154545 25 279 9.7 22.5 0.00 0.00 0.00 38 1008.7
20260509154022 25 221 12.9 22.5 0.00 0.00 0.00 41 1008.7
20260509153521 25 238 14.5 22.5 0.00 0.00 0.00 38 1008.7
20260509153052 25 236 9.7 20.9 0.00 0.00 0.00 42 1008.6
20260509152521 24 257 14.5 20.9 0.00 0.00 0.00 43 1008.6
20260509152021 24 259 9.7 19.3 0.00 0.00 0.00 44 1008.6
20260509151537 23 236 9.7 22.5 0.00 0.00 0.00 44 1008.6
20260509151021 23 240 12.9 22.5 0.00 0.00 0.00 44 1008.6
20260509150521 23 193 9.7 22.5 0.00 0.00 0.00 47 1008.6
20260509150037 22 221 8.0 16.1 0.00 0.00 0.00 51 1008.5
20260509145523 22 236 4.8 16.1 0.00 0.00 0.00 52 1008.5
20260509145021 21 270 8.0 16.1 0.00 0.00 0.00 52 1008.4
20260509144544 21 240 11.3 19.3 0.00 0.00 0.00 54 1008.5
20260509144021 21 225 9.7 20.9 0.00 0.00 0.00 55 1008.6
20260509143521 21 255 9.7 20.9 0.00 0.00 0.00 57 1008.6
20260509143040 20 220 6.4 12.9 0.00 0.00 0.00 59 1008.5
20260509142520 20 247 4.8 16.1 0.00 0.00 0.00 61 1008.4
20260509142020 19 0 6.4 16.1 0.00 0.00 0.00 64 1008.3
20260509141541 18 249 4.8 11.3 0.00 0.00 0.00 68 1008.3
20260509141023 18 250 3.2 11.3 0.00 0.00 0.00 70 1008.3
20260509140521 17 249 6.4 12.9 0.00 0.00 0.00 72 1008.3
20260509140052 17 242 3.2 12.9 0.00 0.00 0.00 76 1008.3
20260509135521 16 234 6.4 12.9 0.00 0.00 0.00 81 1008.4
20260509135021 16 249 3.2 12.9 0.00 0.00 0.00 85 1008.3
20260509134538 15 199 6.4 12.9 0.00 0.00 0.00 88 1008.5
20260509134023 15 178 1.6 6.4 0.00 0.00 0.00 90 1008.5
20260509133521 14 221 1.6 8.0 0.00 0.00 0.00 91 1008.6
20260509133039 13 237 1.6 8.0 0.00 0.00 0.00 92 1008.6
20260509132522 13 241 4.8 8.0 0.00 0.00 0.00 92 1008.6
20260509132022 12 251 3.2 6.4 0.00 0.00 0.00 93 1008.6
20260509131537 12 247 1.6 4.8 0.00 0.00 0.00 93 1008.5
20260509131024 12 0 0.0 4.8 0.00 0.00 0.00 93 1008.4
20260509130521 11 236 0.0 4.8 0.00 0.00 0.00 93 1008.4
20260509130037 11 0 1.6 6.4 0.00 0.00 0.00 93 1008.3
20260509125522 11 162 0.0 6.4 0.00 0.00 0.00 94 1008.3
20260509125020 11 162 1.6 9.7 0.00 0.00 0.00 94 1008.3
20260509124544 10 0 0.0 9.7 0.00 0.00 0.00 94 1008.2
20260509124021 10 162 6.4 9.7 0.00 0.00 0.00 94 1008.2
20260509123521 10 0 0.0 0.0 0.00 0.00 0.00 93 1008.1
20260509123039 10 0 0.0 1.6 0.00 0.00 0.00 93 1008.0
20260509122521 9 0 0.0 3.2 0.00 0.00 0.00 93 1007.9
20260509122021 9 0 0.0 4.8 0.00 0.00 0.00 93 1007.9
20260509121537 8 242 1.6 4.8 0.00 0.00 0.00 93 1007.8
20260509121021 8 242 3.2 4.8 0.00 0.00 0.00 93 1008.0
20260509120521 8 194 1.6 4.8 0.00 0.00 0.00 92 1007.9
20260509120040 8 194 1.6 4.8 0.00 0.00 0.00 92 1007.8
20260509115520 8 192 3.2 4.8 0.00 0.00 0.00 92 1007.8
20260509115021 8 192 1.6 6.4 0.00 0.00 0.00 92 1007.8
20260509114538 8 192 3.2 6.4 0.00 0.00 0.00 92 1007.8
20260509114021 8 192 4.8 6.4 0.00 0.00 0.00 92 1007.6
20260509113521 8 257 3.2 4.8 0.00 0.00 0.00 92 1007.6
20260509113038 8 257 1.6 4.8 0.00 0.00 0.00 92 1007.6
20260509112523 8 257 0.0 3.2 0.00 0.00 0.00 92 1007.5
20260509112021 8 0 0.0 3.2 0.00 0.00 0.00 92 1007.5
20260509111538 8 0 0.0 3.2 0.00 0.00 0.00 92 1007.4
20260509111021 8 257 0.0 3.2 0.00 0.00 0.00 92 1007.3
20260509110522 8 0 0.0 4.8 0.00 0.00 0.00 92 1007.4
20260509110037 8 257 0.0 4.8 0.00 0.00 0.00 92 1007.4
20260509105522 8 257 1.6 6.4 0.00 0.00 0.00 91 1007.5
20260509105021 8 258 1.6 9.7 0.00 0.00 0.00 91 1007.5
20260509104541 8 269 3.2 9.7 0.00 0.00 0.00 91 1007.6
20260509104020 8 251 4.8 9.7 0.00 0.00 0.00 91 1007.6
20260509103524 8 253 4.8 9.7 0.00 0.00 0.00 91 1007.6
20260509103046 8 298 3.2 9.7 0.00 0.00 0.00 91 1007.5
20260509102524 8 292 3.2 9.7 0.00 0.00 0.00 91 1007.5
20260509102021 7 273 4.8 9.7 0.00 0.00 0.00 90 1007.4
20260509101540 7 252 4.8 9.7 0.00 0.00 0.00 90 1007.5
20260509101022 8 259 3.2 6.4 0.00 0.00 0.00 90 1007.6
20260509100521 8 283 3.2 6.4 0.00 0.00 0.00 90 1007.6
20260509100038 8 284 3.2 4.8 0.00 0.00 0.00 90 1007.6
20260509095522 8 225 1.6 4.8 0.00 0.00 0.00 90 1007.6
20260509095024 8 223 1.6 4.8 0.00 0.00 0.00 90 1007.5
20260509094543 8 224 1.6 4.8 0.00 0.00 0.00 90 1007.5
20260509094021 8 224 0.0 4.8 0.00 0.00 0.00 90 1007.5
20260509093521 8 0 1.6 4.8 0.00 0.00 0.00 90 1007.6
20260509093040 8 223 1.6 4.8 0.00 0.00 0.00 90 1007.5
20260509092521 8 223 3.2 6.4 0.00 0.00 0.00 90 1007.6
20260509092021 8 224 4.8 6.4 0.00 0.00 0.00 90 1007.6
20260509091547 9 223 3.2 6.4 0.00 0.00 0.00 90 1007.6
20260509091023 9 223 3.2 6.4 0.00 0.00 0.00 90 1007.7
20260509090521 9 223 3.2 4.8 0.00 0.00 0.00 90 1007.7
20260509090051 9 224 3.2 6.4 0.00 0.00 0.00 90 1007.6
20260509085521 8 224 1.6 6.4 0.00 0.00 0.00 90 1007.6
20260509085020 8 227 3.2 6.4 0.00 0.00 0.00 90 1007.5
20260509084541 8 236 3.2 6.4 0.00 0.00 0.00 90 1007.5
20260509084022 9 238 3.2 6.4 0.00 0.00 0.00 90 1007.6
20260509083521 9 229 3.2 6.4 0.00 0.00 0.00 90 1007.6
20260509083041 9 206 3.2 4.8 0.00 0.00 0.00 90 1007.7
20260509082521 9 205 3.2 4.8 0.00 0.00 0.00 90 1007.7
20260509082023 9 205 1.6 4.8 0.00 0.00 0.00 90 1007.7
20260509081538 8 205 1.6 6.4 0.00 0.00 0.00 90 1007.7
20260509081023 8 205 3.2 6.4 0.00 0.00 0.00 89 1007.7
20260509080524 8 204 4.8 6.4 0.00 0.00 0.00 89 1007.7
20260509080045 8 202 4.8 6.4 0.00 0.00 0.00 89 1007.6
20260509075521 9 215 4.8 6.4 0.00 0.00 0.00 89 1007.7
20260509075022 9 188 3.2 6.4 0.00 0.00 0.00 89 1007.8
20260509074553 9 188 3.2 6.4 0.00 0.00 0.00 89 1007.7
20260509074023 9 188 3.2 6.4 0.00 0.00 0.00 89 1007.6